TimeCDT,TemperatureF,Dew PointF,Humidity,Sea Level PressureIn,VisibilityMPH,Wind Direction,Wind SpeedMPH,Gust SpeedMPH,PrecipitationIn,Events,Conditions,WindDirDegrees,DateUTC
6:55 AM,-2.2,-7.6,78,30.14,10.0,Calm,Calm,-,N/A,,Clear,0,2013-03-14 11:55:00
7:15 AM,-2.2,-9.4,71,30.14,10.0,Calm,Calm,-,N/A,,Clear,0,2013-03-14 12:15:00
7:35 AM,-2.2,-11.2,66,30.15,10.0,Calm,Calm,-,N/A,,Clear,0,2013-03-14 12:35:00
7:55 AM,-4.0,-9.4,78,30.15,10.0,Calm,Calm,-,N/A,,Clear,0,2013-03-14 12:55:00
8:15 AM,-2.2,-5.8,85,30.15,10.0,Calm,Calm,-,N/A,,Clear,0,2013-03-14 13:15:00
8:35 AM,1.4,-5.8,72,30.15,10.0,Calm,Calm,-,N/A,,Clear,0,2013-03-14 13:35:00
8:55 AM,6.8,6.8,100,30.14,10.0,ESE,3.5,-,N/A,,Clear,110,2013-03-14 13:55:00
10:55 AM,28.4,8.6,43,30.10,10.0,South,3.5,-,N/A,,Clear,190,2013-03-14 15:55:00
11:15 AM,28.4,10.4,47,30.08,10.0,SSW,6.9,-,N/A,,Clear,200,2013-03-14 16:15:00
12:35 PM,32.0,12.2,44,30.07,10.0,SW,6.9,-,N/A,,Mostly Cloudy,230,2013-03-14 17:35:00
1:15 PM,35.6,12.2,38,30.05,10.0,SSW,9.2,-,N/A,,Clear,200,2013-03-14 18:15:00
1:35 PM,35.6,12.2,38,30.06,10.0,WSW,6.9,-,N/A,,Clear,240,2013-03-14 18:35:00
1:55 PM,37.4,14.0,38,30.06,10.0,SW,12.7,17.3,N/A,,Mostly Cloudy,230,2013-03-14 18:55:00
2:15 PM,35.6,15.8,44,30.05,10.0,WSW,11.5,-,N/A,,Overcast,240,2013-03-14 19:15:00
2:55 PM,37.4,17.6,45,30.03,10.0,SW,11.5,-,N/A,,Overcast,230,2013-03-14 19:55:00
3:15 PM,37.4,17.6,45,30.00,10.0,SSW,12.7,16.1,N/A,,Overcast,210,2013-03-14 20:15:00
3:35 PM,37.4,19.4,48,30.00,10.0,SSW,10.4,-,N/A,,Overcast,200,2013-03-14 20:35:00
3:55 PM,37.4,21.2,52,30.00,10.0,SW,12.7,-,N/A,,Overcast,220,2013-03-14 20:55:00
4:15 PM,37.4,23.0,56,29.99,10.0,SSW,10.4,-,N/A,,Overcast,210,2013-03-14 21:15:00
4:35 PM,37.4,24.8,60,29.98,10.0,SW,13.8,-,N/A,,Overcast,220,2013-03-14 21:35:00
4:55 PM,37.4,24.8,60,29.97,10.0,SW,16.1,20.7,N/A,,Partly Cloudy,230,2013-03-14 21:55:00
5:15 PM,37.4,23.0,56,29.96,10.0,SW,13.8,-,N/A,,Clear,220,2013-03-14 22:15:00
5:35 PM,35.6,24.8,65,29.97,10.0,SW,15.0,19.6,N/A,,Clear,230,2013-03-14 22:35:00
6:55 PM,35.6,24.8,65,29.95,10.0,SW,10.4,-,N/A,,Clear,230,2013-03-14 23:55:00
7:15 PM,35.6,24.8,65,29.94,10.0,SW,12.7,-,N/A,,Clear,230,2013-03-15 00:15:00
7:35 PM,33.8,23.0,65,29.94,10.0,SW,10.4,-,N/A,,Clear,230,2013-03-15 00:35:00
7:55 PM,33.8,23.0,65,29.94,10.0,SW,9.2,-,N/A,,Scattered Clouds,230,2013-03-15 00:55:00
8:15 PM,33.8,24.8,70,29.94,10.0,SW,8.1,-,N/A,,Overcast,230,2013-03-15 01:15:00
8:35 PM,33.8,24.8,70,29.94,10.0,SW,11.5,-,N/A,,Overcast,230,2013-03-15 01:35:00
8:55 PM,33.8,24.8,70,29.93,10.0,WSW,10.4,-,N/A,,Overcast,240,2013-03-15 01:55:00
9:15 PM,33.8,24.8,70,29.93,10.0,WSW,12.7,-,N/A,,Overcast,240,2013-03-15 02:15:00
9:35 PM,33.8,24.8,70,29.92,10.0,WSW,12.7,-,N/A,,Overcast,240,2013-03-15 02:35:00
9:55 PM,33.8,24.8,70,29.92,10.0,WSW,12.7,-,N/A,,Overcast,240,2013-03-15 02:55:00
10:15 PM,33.8,24.8,70,29.92,10.0,WSW,12.7,-,N/A,,Overcast,240,2013-03-15 03:15:00
10:35 PM,33.8,24.8,70,29.92,10.0,WSW,13.8,-,N/A,,Overcast,250,2013-03-15 03:35:00
10:55 PM,33.8,24.8,70,29.92,10.0,WSW,12.7,-,N/A,,Overcast,250,2013-03-15 03:55:00
11:15 PM,33.8,23.0,65,29.91,10.0,WSW,13.8,-,N/A,,Overcast,240,2013-03-15 04:15:00
11:35 PM,33.8,23.0,65,29.91,10.0,WSW,13.8,17.3,N/A,,Overcast,250,2013-03-15 04:35:00
11:55 PM,33.8,24.8,70,29.91,10.0,West,12.7,-,N/A,,Overcast,260,2013-03-15 04:55:00